Location: Lussas
(44.6119°N, 4.4726°E)
Time: 15:19:14
(UTC+00:00)

EO 1 Delta rocket - Pass Details

Date: 26 November 2020
Orbit: 698 x 1791 km, 95.4° (Epoch: 27 January)

Event Time Altitude Azimuth Distance (km) Brightness Sun altitude
Rises 05:48:14 0° 181° (S) 3,554 7.7 -11.4°
Reaches altitude 10° 05:50:54 10° 186° (S) 2,486 6.8 -11.0°
Maximum altitude 05:56:06 53° 263° (W) 928 4.1 -10.1°
Drops below altitude 10° 06:00:42 10° 341° (NNW) 2,192 6.0 -9.3°
Sets 06:02:55 0° 346° (NNW) 3,095 6.8 -8.9°
